Terminal Aerodrome Forecast
Issued by NWS

Home | Current Version | Previous Version | Text Only | Print | Product List | Glossary On
Versions: 1 2 3 4 5 6 7 8 9 10 11 12 13 14 15 16 17 18 19 20 21 22 23 24 25 26 27
789
FTUS41 KBUF 082324
TAFIAG
TAF
KIAG 082324Z 0900/0924 11011KT P6SM VCSH BKN035 OVC050
     FM090300 10008KT 5SM -SNRA BR OVC035
     FM090600 10009KT 4SM -SN OVC025
     FM091200 18006KT P6SM VCSH OVC020
     FM092200 26009KT P6SM OVC020=

USA.gov is the U.S. government's official web portal to all federal, state and local government web resources and services.